Time,TemperatureF,DewpointF,PressureIn,WindDirection,WindDirectionDegrees,WindSpeedMPH,WindSpeedGustMPH,Humidity,HourlyPrecipIn,Conditions,Clouds,dailyrainin,SoftwareType,DateUTC
2010-07-29 00:01:00,70.7,63.9,30.08,North,350,0.0,0.0,79,0.00,,,0.00,WeatherTracker,2010-07-29 05:01:00,
2010-07-29 00:06:00,70.4,63.9,30.08,North,350,0.0,0.0,80,0.00,,,0.00,WeatherTracker,2010-07-29 05:06:00,
2010-07-29 00:11:00,70.1,63.6,30.08,North,350,0.0,0.0,80,0.00,,,0.00,WeatherTracker,2010-07-29 05:11:00,
2010-07-29 00:16:00,69.8,63.7,30.08,North,350,0.0,0.0,81,0.00,,,0.00,WeatherTracker,2010-07-29 05:16:00,
2010-07-29 00:21:00,69.4,63.7,30.09,North,350,0.0,0.0,82,0.00,,,0.00,WeatherTracker,2010-07-29 05:21:00,
2010-07-29 00:26:00,69.1,63.7,30.09,North,350,0.0,0.0,83,0.00,,,0.00,WeatherTracker,2010-07-29 05:26:00,
2010-07-29 00:31:00,68.9,63.5,30.09,North,350,0.0,0.0,83,0.00,,,0.00,WeatherTracker,2010-07-29 05:31:00,
2010-07-29 00:36:00,68.8,63.4,30.09,North,350,0.0,0.0,83,0.00,,,0.00,WeatherTracker,2010-07-29 05:36:00,
2010-07-29 00:41:00,68.6,63.6,30.09,North,350,0.0,0.0,84,0.00,,,0.00,WeatherTracker,2010-07-29 05:41:00,
2010-07-29 00:46:00,68.4,63.4,30.09,North,350,0.0,0.0,84,0.00,,,0.00,WeatherTracker,2010-07-29 05:46:00,
2010-07-29 00:51:00,68.3,63.3,30.09,North,350,0.0,0.0,84,0.00,,,0.00,WeatherTracker,2010-07-29 05:51:00,
2010-07-29 00:56:00,68.0,63.3,30.09,North,350,0.0,0.0,85,0.00,,,0.00,WeatherTracker,2010-07-29 05:56:00,
2010-07-29 01:01:00,67.9,63.6,30.09,North,350,0.0,0.0,86,0.00,,,0.00,WeatherTracker,2010-07-29 06:01:00,
2010-07-29 01:06:00,67.7,63.4,30.09,North,350,0.0,0.0,86,0.00,,,0.00,WeatherTracker,2010-07-29 06:06:00,
2010-07-29 01:11:00,67.5,63.2,30.09,North,350,0.0,0.0,86,0.00,,,0.00,WeatherTracker,2010-07-29 06:11:00,
2010-07-29 01:16:00,67.4,63.4,30.09,North,350,0.0,0.0,87,0.00,,,0.00,WeatherTracker,2010-07-29 06:16:00,
2010-07-29 01:21:00,67.3,63.3,30.09,North,350,0.0,0.0,87,0.00,,,0.00,WeatherTracker,2010-07-29 06:21:00,
2010-07-29 01:26:00,67.2,63.5,30.09,North,350,0.0,0.0,88,0.00,,,0.00,WeatherTracker,2010-07-29 06:26:00,
2010-07-29 01:31:00,67.0,63.0,30.09,North,350,0.0,0.0,87,0.00,,,0.00,WeatherTracker,2010-07-29 06:31:00,
2010-07-29 01:36:00,66.9,63.2,30.09,North,350,0.0,0.0,88,0.00,,,0.00,WeatherTracker,2010-07-29 06:36:00,
2010-07-29 01:41:00,66.8,63.1,30.09,North,350,0.0,0.0,88,0.00,,,0.00,WeatherTracker,2010-07-29 06:41:00,
2010-07-29 01:46:00,66.6,63.3,30.09,North,350,0.0,0.0,89,0.00,,,0.00,WeatherTracker,2010-07-29 06:46:00,
2010-07-29 01:51:00,66.4,63.1,30.09,North,350,0.0,0.0,89,0.00,,,0.00,WeatherTracker,2010-07-29 06:51:00,
2010-07-29 01:56:00,66.2,62.9,30.09,North,350,0.0,0.0,89,0.00,,,0.00,WeatherTracker,2010-07-29 06:56:00,
2010-07-29 02:01:00,66.0,63.0,30.09,North,350,0.0,0.0,90,0.00,,,0.00,WeatherTracker,2010-07-29 07:01:00,
2010-07-29 02:07:00,65.9,62.9,30.09,North,350,0.0,0.0,90,0.00,,,0.00,WeatherTracker,2010-07-29 07:07:00,
2010-07-29 02:12:00,65.8,62.8,30.09,North,350,0.0,0.0,90,0.00,,,0.00,WeatherTracker,2010-07-29 07:12:00,
2010-07-29 02:17:00,65.6,62.6,30.09,North,350,0.0,0.0,90,0.00,,,0.00,WeatherTracker,2010-07-29 07:17:00,
2010-07-29 02:22:00,65.5,63.1,30.10,North,350,0.0,0.0,92,0.00,,,0.00,WeatherTracker,2010-07-29 07:22:00,
2010-07-29 02:27:00,65.3,62.6,30.10,North,350,0.0,0.0,91,0.00,,,0.00,WeatherTracker,2010-07-29 07:27:00,
2010-07-29 02:32:00,65.2,62.5,30.11,North,350,0.0,0.0,91,0.00,,,0.00,WeatherTracker,2010-07-29 07:32:00,
2010-07-29 02:37:00,65.2,62.5,30.11,North,350,0.0,0.0,91,0.00,,,0.00,WeatherTracker,2010-07-29 07:37:00,
2010-07-29 02:42:00,65.1,62.7,30.11,North,350,0.0,0.0,92,0.00,,,0.00,WeatherTracker,2010-07-29 07:42:00,
2010-07-29 02:47:00,65.0,62.6,30.10,North,350,0.0,0.0,92,0.00,,,0.00,WeatherTracker,2010-07-29 07:47:00,
2010-07-29 02:52:00,64.9,62.5,30.10,North,350,0.0,0.0,92,0.00,,,0.00,WeatherTracker,2010-07-29 07:52:00,
2010-07-29 02:57:00,64.8,62.4,30.11,North,350,0.0,0.0,92,0.00,,,0.00,WeatherTracker,2010-07-29 07:57:00,
2010-07-29 03:02:00,64.7,62.3,30.11,North,350,0.0,0.0,92,0.00,,,0.00,WeatherTracker,2010-07-29 08:02:00,
2010-07-29 03:07:00,64.7,62.3,30.11,North,350,0.0,0.0,92,0.00,,,0.00,WeatherTracker,2010-07-29 08:07:00,
2010-07-29 03:13:00,64.6,62.2,30.11,North,350,0.0,0.0,92,0.00,,,0.00,WeatherTracker,2010-07-29 08:13:00,
2010-07-29 03:18:00,64.5,62.4,30.11,North,350,0.0,0.0,93,0.00,,,0.00,WeatherTracker,2010-07-29 08:18:00,
2010-07-29 03:23:00,64.4,62.3,30.11,North,350,0.0,0.0,93,0.00,,,0.00,WeatherTracker,2010-07-29 08:23:00,
2010-07-29 03:28:00,64.4,62.3,30.11,North,350,0.0,0.0,93,0.00,,,0.00,WeatherTracker,2010-07-29 08:28:00,
2010-07-29 03:33:00,64.3,62.2,30.11,North,350,0.0,0.0,93,0.00,,,0.00,WeatherTracker,2010-07-29 08:33:00,
2010-07-29 03:38:00,64.2,62.1,30.11,North,350,0.0,0.0,93,0.00,,,0.00,WeatherTracker,2010-07-29 08:38:00,
2010-07-29 03:43:00,64.1,62.0,30.11,North,350,0.0,0.0,93,0.00,,,0.00,WeatherTracker,2010-07-29 08:43:00,
2010-07-29 03:48:00,64.0,61.9,30.11,North,350,0.0,0.0,93,0.00,,,0.00,WeatherTracker,2010-07-29 08:48:00,
2010-07-29 03:53:00,64.0,61.9,30.11,North,350,0.0,0.0,93,0.00,,,0.00,WeatherTracker,2010-07-29 08:53:00,
2010-07-29 03:58:00,64.0,61.9,30.11,North,350,0.0,0.0,93,0.00,,,0.00,WeatherTracker,2010-07-29 08:58:00,
2010-07-29 04:03:00,63.9,61.8,30.11,North,350,0.0,0.0,93,0.00,,,0.00,WeatherTracker,2010-07-29 09:03:00,
2010-07-29 04:08:00,63.9,62.1,30.11,North,350,0.0,0.0,94,0.00,,,0.00,WeatherTracker,2010-07-29 09:08:00,
2010-07-29 04:13:00,63.8,61.7,30.11,North,350,0.0,0.0,93,0.00,,,0.00,WeatherTracker,2010-07-29 09:13:00,
2010-07-29 04:18:00,63.7,61.9,30.11,North,350,0.0,0.0,94,0.00,,,0.00,WeatherTracker,2010-07-29 09:18:00,
2010-07-29 04:23:00,63.6,61.8,30.10,North,350,0.0,0.0,94,0.00,,,0.00,WeatherTracker,2010-07-29 09:23:00,
2010-07-29 04:28:00,63.6,61.8,30.10,North,350,0.0,0.0,94,0.00,,,0.00,WeatherTracker,2010-07-29 09:28:00,
2010-07-29 04:33:00,63.5,61.7,30.10,North,350,0.0,0.0,94,0.00,,,0.00,WeatherTracker,2010-07-29 09:33:00,
2010-07-29 04:38:00,63.5,61.7,30.10,North,350,0.0,0.0,94,0.00,,,0.00,WeatherTracker,2010-07-29 09:38:00,
2010-07-29 04:44:00,63.4,61.6,30.11,North,350,0.0,0.0,94,0.00,,,0.00,WeatherTracker,2010-07-29 09:44:00,
2010-07-29 04:49:00,63.3,61.5,30.11,North,350,0.0,0.0,94,0.00,,,0.00,WeatherTracker,2010-07-29 09:49:00,
2010-07-29 04:54:00,63.2,61.4,30.11,North,350,0.0,0.0,94,0.00,,,0.00,WeatherTracker,2010-07-29 09:54:00,
2010-07-29 04:59:00,63.1,61.3,30.11,North,350,0.0,0.0,94,0.00,,,0.00,WeatherTracker,2010-07-29 09:59:00,
2010-07-29 05:04:00,63.1,61.3,30.11,North,350,0.0,0.0,94,0.00,,,0.00,WeatherTracker,2010-07-29 10:04:00,
2010-07-29 05:09:00,63.0,61.2,30.11,North,350,0.0,0.0,94,0.00,,,0.00,WeatherTracker,2010-07-29 10:09:00,
2010-07-29 05:14:00,62.9,61.1,30.11,North,350,0.0,0.0,94,0.00,,,0.00,WeatherTracker,2010-07-29 10:14:00,
2010-07-29 05:19:00,62.9,61.1,30.11,North,350,0.0,0.0,94,0.00,,,0.00,WeatherTracker,2010-07-29 10:19:00,
2010-07-29 05:24:00,62.8,61.0,30.11,North,350,0.0,0.0,94,0.00,,,0.00,WeatherTracker,2010-07-29 10:24:00,
2010-07-29 05:29:00,62.8,61.0,30.12,North,350,0.0,0.0,94,0.00,,,0.00,WeatherTracker,2010-07-29 10:29:00,
2010-07-29 05:34:00,62.7,60.9,30.11,North,350,0.0,0.0,94,0.00,,,0.00,WeatherTracker,2010-07-29 10:34:00,
2010-07-29 05:39:00,62.7,60.9,30.12,North,350,0.0,0.0,94,0.00,,,0.00,WeatherTracker,2010-07-29 10:39:00,
2010-07-29 05:44:00,62.6,60.8,30.12,North,350,0.0,0.0,94,0.00,,,0.00,WeatherTracker,2010-07-29 10:44:00,
2010-07-29 05:49:00,62.6,60.8,30.12,North,350,0.0,0.0,94,0.00,,,0.00,WeatherTracker,2010-07-29 10:49:00,
2010-07-29 05:54:00,62.6,60.8,30.12,North,350,0.0,0.0,94,0.00,,,0.00,WeatherTracker,2010-07-29 10:54:00,
2010-07-29 05:59:00,62.5,61.0,30.12,North,350,0.0,0.0,95,0.00,,,0.00,WeatherTracker,2010-07-29 10:59:00,
2010-07-29 06:04:00,62.4,60.9,30.12,North,350,0.0,0.0,95,0.00,,,0.00,WeatherTracker,2010-07-29 11:04:00,
2010-07-29 06:09:00,62.4,60.9,30.12,North,350,0.0,0.0,95,0.00,,,0.00,WeatherTracker,2010-07-29 11:09:00,
2010-07-29 06:14:00,62.3,60.8,30.12,North,350,0.0,0.0,95,0.00,,,0.00,WeatherTracker,2010-07-29 11:14:00,
2010-07-29 06:19:00,62.3,60.8,30.12,North,350,0.0,0.0,95,0.00,,,0.00,WeatherTracker,2010-07-29 11:19:00,
2010-07-29 06:24:00,62.3,60.8,30.12,North,350,0.0,0.0,95,0.00,,,0.00,WeatherTracker,2010-07-29 11:24:00,
2010-07-29 06:30:00,62.3,60.8,30.12,North,350,0.0,0.0,95,0.00,,,0.00,WeatherTracker,2010-07-29 11:30:00,
2010-07-29 06:35:00,62.2,60.7,30.12,North,350,0.0,0.0,95,0.00,,,0.00,WeatherTracker,2010-07-29 11:35:00,
2010-07-29 06:40:00,62.3,60.8,30.12,North,350,0.0,0.0,95,0.00,,,0.00,WeatherTracker,2010-07-29 11:40:00,
2010-07-29 06:45:00,62.3,60.8,30.12,North,350,0.0,0.0,95,0.00,,,0.00,WeatherTracker,2010-07-29 11:45:00,
2010-07-29 06:50:00,62.4,60.9,30.12,North,350,0.0,0.0,95,0.00,,,0.00,WeatherTracker,2010-07-29 11:50:00,
2010-07-29 06:55:00,62.5,61.0,30.12,North,350,0.0,0.0,95,0.00,,,0.00,WeatherTracker,2010-07-29 11:55:00,
2010-07-29 07:00:00,62.6,61.1,30.12,North,350,0.0,0.0,95,0.00,,,0.00,WeatherTracker,2010-07-29 12:00:00,
2010-07-29 07:05:00,62.7,61.2,30.12,North,350,0.0,0.0,95,0.00,,,0.00,WeatherTracker,2010-07-29 12:05:00,
2010-07-29 07:10:00,62.7,61.2,30.13,North,350,0.0,0.0,95,0.00,,,0.00,WeatherTracker,2010-07-29 12:10:00,
2010-07-29 07:15:00,62.9,61.4,30.13,North,350,0.0,0.0,95,0.00,,,0.00,WeatherTracker,2010-07-29 12:15:00,
2010-07-29 07:20:00,63.1,61.9,30.13,North,350,0.0,0.0,96,0.00,,,0.00,WeatherTracker,2010-07-29 12:20:00,
2010-07-29 07:25:00,63.3,62.1,30.13,North,350,0.0,0.0,96,0.00,,,0.00,WeatherTracker,2010-07-29 12:25:00,
2010-07-29 07:30:00,63.6,62.4,30.13,North,350,0.0,0.0,96,0.00,,,0.00,WeatherTracker,2010-07-29 12:30:00,
2010-07-29 07:35:00,64.0,62.8,30.13,North,350,0.0,0.0,96,0.00,,,0.00,WeatherTracker,2010-07-29 12:35:00,
2010-07-29 07:40:00,64.2,63.0,30.13,North,350,0.0,0.0,96,0.00,,,0.00,WeatherTracker,2010-07-29 12:40:00,
2010-07-29 07:45:00,64.3,63.1,30.13,North,350,0.0,0.0,96,0.00,,,0.00,WeatherTracker,2010-07-29 12:45:00,
2010-07-29 07:50:00,64.4,63.2,30.13,North,350,0.0,0.0,96,0.00,,,0.00,WeatherTracker,2010-07-29 12:50:00,
2010-07-29 07:55:00,64.5,63.0,30.13,North,350,0.0,0.0,95,0.00,,,0.00,WeatherTracker,2010-07-29 12:55:00,
2010-07-29 08:00:00,64.8,63.3,30.13,North,350,2.0,0.0,95,0.00,,,0.00,WeatherTracker,2010-07-29 13:00:00,
2010-07-29 08:05:00,65.2,63.7,30.13,North,350,0.0,0.0,95,0.00,,,0.00,WeatherTracker,2010-07-29 13:05:00,
2010-07-29 08:10:00,65.6,64.1,30.13,North,350,0.0,0.0,95,0.00,,,0.00,WeatherTracker,2010-07-29 13:10:00,
2010-07-29 08:15:00,66.0,64.5,30.13,North,350,1.0,0.0,95,0.00,,,0.00,WeatherTracker,2010-07-29 13:15:00,
2010-07-29 08:20:00,66.4,64.6,30.13,North,350,0.0,0.0,94,0.00,,,0.00,WeatherTracker,2010-07-29 13:20:00,
2010-07-29 08:26:00,66.9,64.8,30.13,North,350,0.0,0.0,93,0.00,,,0.00,WeatherTracker,2010-07-29 13:26:00,
2010-07-29 08:31:00,67.5,65.1,30.13,North,350,0.0,0.0,92,0.00,,,0.00,WeatherTracker,2010-07-29 13:31:00,
2010-07-29 08:36:00,68.0,65.0,30.13,North,350,0.0,0.0,90,0.00,,,0.00,WeatherTracker,2010-07-29 13:36:00,
2010-07-29 08:41:00,68.3,64.3,30.13,NNE,32,0.0,0.0,87,0.00,,,0.00,WeatherTracker,2010-07-29 13:41:00,
2010-07-29 08:46:00,68.8,63.8,30.13,NNE,33,0.0,0.0,84,0.00,,,0.00,WeatherTracker,2010-07-29 13:46:00,
2010-07-29 08:51:00,69.5,64.1,30.13,NNE,33,0.0,0.0,83,0.00,,,0.00,WeatherTracker,2010-07-29 13:51:00,
2010-07-29 08:56:00,70.1,64.7,30.12,NNE,32,0.0,0.0,83,0.00,,,0.00,WeatherTracker,2010-07-29 13:56:00,
2010-07-29 09:01:00,70.5,64.7,30.13,NNE,32,1.0,0.0,82,0.00,,,0.00,WeatherTracker,2010-07-29 14:01:00,
2010-07-29 09:06:00,71.0,64.9,30.13,NNE,32,0.0,0.0,81,0.00,,,0.00,WeatherTracker,2010-07-29 14:06:00,
2010-07-29 09:11:00,71.5,65.4,30.13,NNE,32,0.0,0.0,81,0.00,,,0.00,WeatherTracker,2010-07-29 14:11:00,
2010-07-29 09:16:00,72.1,65.2,30.13,ENE,78,2.0,0.0,79,0.00,,,0.00,WeatherTracker,2010-07-29 14:16:00,
2010-07-29 09:21:00,73.0,64.6,30.13,NNE,17,0.0,0.0,75,0.00,,,0.00,WeatherTracker,2010-07-29 14:21:00,
2010-07-29 09:26:00,73.9,64.3,30.13,NNE,17,0.0,0.0,72,0.00,,,0.00,WeatherTracker,2010-07-29 14:26:00,
2010-07-29 09:31:00,74.8,64.3,30.13,NNE,17,0.0,0.0,70,0.00,,,0.00,WeatherTracker,2010-07-29 14:31:00,
2010-07-29 09:36:00,75.4,64.5,30.13,North,10,0.0,0.0,69,0.00,,,0.00,WeatherTracker,2010-07-29 14:36:00,
2010-07-29 09:41:00,75.8,64.0,30.13,North,5,2.0,0.0,67,0.00,,,0.00,WeatherTracker,2010-07-29 14:41:00,
2010-07-29 09:46:00,76.4,65.9,30.13,NE,46,2.0,0.0,70,0.00,,,0.00,WeatherTracker,2010-07-29 14:46:00,
2010-07-29 09:51:00,76.6,63.5,30.12,WSW,248,1.0,0.0,64,0.00,,,0.00,WeatherTracker,2010-07-29 14:51:00,
2010-07-29 09:56:00,76.8,64.1,30.12,North,360,2.0,0.0,65,0.00,,,0.00,WeatherTracker,2010-07-29 14:56:00,
2010-07-29 10:01:00,76.9,63.8,30.13,NNE,30,0.0,0.0,64,0.00,,,0.00,WeatherTracker,2010-07-29 15:01:00,
2010-07-29 10:06:00,77.3,64.2,30.13,NE,35,0.0,0.0,64,0.00,,,0.00,WeatherTracker,2010-07-29 15:06:00,
2010-07-29 10:11:00,77.6,64.0,30.12,NE,40,1.0,0.0,63,0.00,,,0.00,WeatherTracker,2010-07-29 15:11:00,
2010-07-29 10:16:00,77.8,63.7,30.12,NE,45,0.0,0.0,62,0.00,,,0.00,WeatherTracker,2010-07-29 15:16:00,
2010-07-29 10:21:00,78.1,63.5,30.12,NNW,340,1.0,0.0,61,0.00,,,0.00,WeatherTracker,2010-07-29 15:21:00,
2010-07-29 10:26:00,78.2,64.1,30.12,NNW,328,0.0,0.0,62,0.00,,,0.00,WeatherTracker,2010-07-29 15:26:00,
2010-07-29 10:31:00,78.2,64.1,30.12,NNE,15,0.0,0.0,62,0.00,,,0.00,WeatherTracker,2010-07-29 15:31:00,
2010-07-29 10:36:00,78.5,65.7,30.12,NNW,340,0.0,0.0,65,0.00,,,0.00,WeatherTracker,2010-07-29 15:36:00,
2010-07-29 10:41:00,78.5,64.4,30.12,North,355,0.0,0.0,62,0.00,,,0.00,WeatherTracker,2010-07-29 15:41:00,
2010-07-29 10:46:00,78.5,63.9,30.11,NW,325,1.0,0.0,61,0.00,,,0.00,WeatherTracker,2010-07-29 15:46:00,
2010-07-29 10:51:00,78.7,64.1,30.11,NE,36,1.0,0.0,61,0.00,,,0.00,WeatherTracker,2010-07-29 15:51:00,
2010-07-29 10:56:00,78.9,64.3,30.11,East,97,2.0,0.0,61,0.00,,,0.00,WeatherTracker,2010-07-29 15:56:00,
2010-07-29 11:01:00,78.9,64.3,30.11,ESE,111,0.0,0.0,61,0.00,,,0.00,WeatherTracker,2010-07-29 16:01:00,
2010-07-29 11:07:00,78.8,63.7,30.11,NE,54,2.0,0.0,60,0.00,,,0.00,WeatherTracker,2010-07-29 16:07:00,
2010-07-29 11:12:00,78.9,63.3,30.11,East,98,3.0,0.0,59,0.00,,,0.00,WeatherTracker,2010-07-29 16:12:00,
2010-07-29 11:17:00,79.3,64.2,30.11,SSW,197,2.0,0.0,60,0.00,,,0.00,WeatherTracker,2010-07-29 16:17:00,
2010-07-29 11:22:00,79.6,64.0,30.11,South,169,0.0,0.0,59,0.00,,,0.00,WeatherTracker,2010-07-29 16:22:00,
2010-07-29 11:27:00,79.6,62.5,30.11,East,90,2.0,0.0,56,0.00,,,0.00,WeatherTracker,2010-07-29 16:27:00,
2010-07-29 11:32:00,79.4,65.2,30.11,NNE,21,1.0,0.0,62,0.00,,,0.00,WeatherTracker,2010-07-29 16:32:00,
2010-07-29 11:37:00,79.4,63.3,30.11,NE,56,3.0,0.0,58,0.00,,,0.00,WeatherTracker,2010-07-29 16:37:00,
2010-07-29 11:42:00,79.4,64.8,30.11,East,83,0.0,0.0,61,0.00,,,0.00,WeatherTracker,2010-07-29 16:42:00,
2010-07-29 11:47:00,79.7,65.0,30.11,North,360,1.0,0.0,61,0.00,,,0.00,WeatherTracker,2010-07-29 16:47:00,
2010-07-29 11:52:00,80.1,64.5,30.11,NE,45,3.0,0.0,59,0.00,,,0.00,WeatherTracker,2010-07-29 16:52:00,
2010-07-29 11:57:00,80.2,64.5,30.11,NNE,19,4.0,0.0,59,0.00,,,0.00,WeatherTracker,2010-07-29 16:57:00,
2010-07-29 12:02:00,80.1,62.5,30.11,NE,40,0.0,0.0,55,0.00,,,0.00,WeatherTracker,2010-07-29 17:02:00,
2010-07-29 12:07:00,80.3,65.1,30.11,ENE,58,1.0,0.0,60,0.00,,,0.00,WeatherTracker,2010-07-29 17:07:00,
2010-07-29 12:12:00,80.7,64.0,30.10,North,355,0.0,0.0,57,0.00,,,0.00,WeatherTracker,2010-07-29 17:12:00,
2010-07-29 12:17:00,80.9,64.7,30.10,NE,45,1.0,0.0,58,0.00,,,0.00,WeatherTracker,2010-07-29 17:17:00,
2010-07-29 12:22:00,80.9,64.7,30.10,NNE,20,3.0,0.0,58,0.00,,,0.00,WeatherTracker,2010-07-29 17:22:00,
2010-07-29 12:27:00,80.9,63.2,30.10,NNW,340,0.0,0.0,55,0.00,,,0.00,WeatherTracker,2010-07-29 17:27:00,
2010-07-29 12:32:00,80.8,63.6,30.10,NE,46,1.0,0.0,56,0.00,,,0.00,WeatherTracker,2010-07-29 17:32:00,
2010-07-29 12:37:00,81.1,63.4,30.10,NE,49,0.0,0.0,55,0.00,,,0.00,WeatherTracker,2010-07-29 17:37:00,
2010-07-29 12:42:00,81.5,64.8,30.10,NNE,15,1.0,0.0,57,0.00,,,0.00,WeatherTracker,2010-07-29 17:42:00,
2010-07-29 12:48:00,81.3,65.1,30.10,NNE,25,5.0,0.0,58,0.00,,,0.00,WeatherTracker,2010-07-29 17:48:00,
2010-07-29 12:53:00,81.2,63.5,30.10,West,259,0.0,0.0,55,0.00,,,0.00,WeatherTracker,2010-07-29 17:53:00,
2010-07-29 12:58:00,81.5,67.2,30.09,NE,39,2.0,0.0,62,0.00,,,0.00,WeatherTracker,2010-07-29 17:58:00,
2010-07-29 13:03:00,81.8,65.1,30.10,NE,56,3.0,0.0,57,0.00,,,0.00,WeatherTracker,2010-07-29 18:03:00,
2010-07-29 13:08:00,81.7,64.4,30.10,WSW,242,0.0,0.0,56,0.00,,,0.00,WeatherTracker,2010-07-29 18:08:00,
2010-07-29 13:13:00,82.0,65.2,30.09,East,87,1.0,0.0,57,0.00,,,0.00,WeatherTracker,2010-07-29 18:13:00,
2010-07-29 13:18:00,82.1,64.3,30.09,NE,42,1.0,0.0,55,0.00,,,0.00,WeatherTracker,2010-07-29 18:18:00,
2010-07-29 13:23:00,81.8,64.0,30.09,WSW,241,1.0,0.0,55,0.00,,,0.00,WeatherTracker,2010-07-29 18:23:00,
2010-07-29 13:28:00,81.5,63.7,30.10,NW,304,0.0,0.0,55,0.00,,,0.00,WeatherTracker,2010-07-29 18:28:00,
2010-07-29 13:33:00,81.8,64.5,30.09,SSE,147,0.0,0.0,56,0.00,,,0.00,WeatherTracker,2010-07-29 18:33:00,
2010-07-29 13:38:00,82.4,65.6,30.09,ESE,105,0.0,0.0,57,0.00,,,0.00,WeatherTracker,2010-07-29 18:38:00,
2010-07-29 13:43:00,82.8,64.4,30.10,SW,225,2.0,0.0,54,0.00,,,0.00,WeatherTracker,2010-07-29 18:43:00,
2010-07-29 13:48:00,82.7,64.3,30.09,NNW,330,0.0,0.0,54,0.00,,,0.00,WeatherTracker,2010-07-29 18:48:00,
2010-07-29 13:53:00,82.7,66.9,30.09,North,5,3.0,0.0,59,0.00,,,0.00,WeatherTracker,2010-07-29 18:53:00,
2010-07-29 13:58:00,82.5,66.2,30.09,North,355,3.0,0.0,58,0.00,,,0.00,WeatherTracker,2010-07-29 18:58:00,
2010-07-29 14:03:00,82.7,65.4,30.09,ESE,103,1.0,0.0,56,0.00,,,0.00,WeatherTracker,2010-07-29 19:03:00,
2010-07-29 14:08:00,82.5,65.2,30.09,NNE,19,0.0,0.0,56,0.00,,,0.00,WeatherTracker,2010-07-29 19:08:00,
2010-07-29 14:13:00,82.6,65.3,30.09,NNE,29,0.0,0.0,56,0.00,,,0.00,WeatherTracker,2010-07-29 19:13:00,
2010-07-29 14:19:00,82.6,66.3,30.09,NE,34,0.0,0.0,58,0.00,,,0.00,WeatherTracker,2010-07-29 19:19:00,
2010-07-29 14:24:00,82.5,68.6,30.09,ENE,76,2.0,0.0,63,0.00,,,0.00,WeatherTracker,2010-07-29 19:24:00,
2010-07-29 14:29:00,82.7,67.4,30.09,WNW,296,1.0,0.0,60,0.00,,,0.00,WeatherTracker,2010-07-29 19:29:00,
2010-07-29 14:34:00,82.9,67.1,30.09,NNW,348,1.0,0.0,59,0.00,,,0.00,WeatherTracker,2010-07-29 19:34:00,
2010-07-29 14:39:00,82.9,67.1,30.09,NNE,22,0.0,0.0,59,0.00,,,0.00,WeatherTracker,2010-07-29 19:39:00,
2010-07-29 14:44:00,83.0,64.6,30.09,North,355,2.0,0.0,54,0.00,,,0.00,WeatherTracker,2010-07-29 19:44:00,
2010-07-29 14:49:00,83.0,66.7,30.09,NE,38,1.0,0.0,58,0.00,,,0.00,WeatherTracker,2010-07-29 19:49:00,
2010-07-29 14:54:00,83.4,68.0,30.08,NNW,347,2.0,0.0,60,0.00,,,0.00,WeatherTracker,2010-07-29 19:54:00,
2010-07-29 14:59:00,83.8,65.9,30.08,SW,223,0.0,0.0,55,0.00,,,0.00,WeatherTracker,2010-07-29 19:59:00,
2010-07-29 15:04:00,83.9,64.9,30.07,West,273,3.0,0.0,53,0.00,,,0.00,WeatherTracker,2010-07-29 20:04:00,
2010-07-29 15:09:00,83.7,66.8,30.08,SW,225,1.0,0.0,57,0.00,,,0.00,WeatherTracker,2010-07-29 20:09:00,
2010-07-29 15:14:00,83.8,66.9,30.08,NNE,17,0.0,0.0,57,0.00,,,0.00,WeatherTracker,2010-07-29 20:14:00,
2010-07-29 15:19:00,83.2,67.4,30.08,NNE,17,0.0,0.0,59,0.00,,,0.00,WeatherTracker,2010-07-29 20:19:00,
2010-07-29 15:24:00,82.5,66.2,30.08,NNE,17,0.0,0.0,58,0.00,,,0.00,WeatherTracker,2010-07-29 20:24:00,
2010-07-29 15:29:00,82.9,68.0,30.08,NNE,26,2.0,0.0,61,0.00,,,0.00,WeatherTracker,2010-07-29 20:29:00,
2010-07-29 15:34:00,83.0,65.7,30.07,ENE,63,2.0,0.0,56,0.00,,,0.00,WeatherTracker,2010-07-29 20:34:00,
2010-07-29 15:39:00,83.1,66.8,30.07,WSW,237,3.0,0.0,58,0.00,,,0.00,WeatherTracker,2010-07-29 20:39:00,
2010-07-29 15:44:00,83.6,65.2,30.07,NNE,19,0.0,0.0,54,0.00,,,0.00,WeatherTracker,2010-07-29 20:44:00,
2010-07-29 15:49:00,83.2,64.3,30.07,NE,55,0.0,0.0,53,0.00,,,0.00,WeatherTracker,2010-07-29 20:49:00,
2010-07-29 15:54:00,82.8,68.4,30.07,NE,55,0.0,0.0,62,0.00,,,0.00,WeatherTracker,2010-07-29 20:54:00,
2010-07-29 15:59:00,82.4,68.5,30.07,NE,36,0.0,0.0,63,0.00,,,0.00,WeatherTracker,2010-07-29 20:59:00,
2010-07-29 16:04:00,81.9,66.6,30.07,North,5,3.0,0.0,60,0.00,,,0.00,WeatherTracker,2010-07-29 21:04:00,
2010-07-29 16:09:00,81.9,68.5,30.06,NNE,19,1.0,0.0,64,0.00,,,0.00,WeatherTracker,2010-07-29 21:09:00,
2010-07-29 16:14:00,81.5,69.5,30.06,North,355,0.0,0.0,67,0.00,,,0.00,WeatherTracker,2010-07-29 21:14:00,
2010-07-29 16:19:00,81.1,69.5,30.06,SW,219,0.0,0.0,68,0.00,,,0.00,WeatherTracker,2010-07-29 21:19:00,
2010-07-29 16:24:00,80.7,67.8,30.06,SW,219,0.0,0.0,65,0.00,,,0.00,WeatherTracker,2010-07-29 21:24:00,
2010-07-29 16:29:00,81.1,67.7,30.06,North,10,2.0,0.0,64,0.00,,,0.00,WeatherTracker,2010-07-29 21:29:00,
2010-07-29 16:34:00,81.5,66.7,30.06,North,360,0.0,0.0,61,0.00,,,0.00,WeatherTracker,2010-07-29 21:34:00,
2010-07-29 16:39:00,82.5,65.7,30.05,WSW,244,1.0,0.0,57,0.00,,,0.00,WeatherTracker,2010-07-29 21:39:00,
2010-07-29 16:44:00,82.6,65.8,30.06,NW,311,0.0,0.0,57,0.00,,,0.00,WeatherTracker,2010-07-29 21:44:00,
2010-07-29 16:49:00,82.0,69.0,30.06,North,360,4.0,0.0,65,0.00,,,0.00,WeatherTracker,2010-07-29 21:49:00,
2010-07-29 16:54:00,81.3,67.5,30.06,NW,306,0.0,0.0,63,0.00,,,0.00,WeatherTracker,2010-07-29 21:54:00,
2010-07-29 17:00:00,81.3,69.3,30.06,NE,52,3.0,0.0,67,0.00,,,0.00,WeatherTracker,2010-07-29 22:00:00,
2010-07-29 17:05:00,81.5,66.2,30.06,SW,233,3.0,0.0,60,0.00,,,0.00,WeatherTracker,2010-07-29 22:05:00,
2010-07-29 17:10:00,82.1,67.8,30.06,SW,230,2.0,0.0,62,0.00,,,0.00,WeatherTracker,2010-07-29 22:10:00,
2010-07-29 17:15:00,82.2,66.4,30.05,NNE,32,0.0,0.0,59,0.00,,,0.00,WeatherTracker,2010-07-29 22:15:00,
2010-07-29 17:20:00,82.5,67.2,30.05,WNW,300,0.0,0.0,60,0.00,,,0.00,WeatherTracker,2010-07-29 22:20:00,
2010-07-29 17:25:00,82.3,66.5,30.05,SW,218,0.0,0.0,59,0.00,,,0.00,WeatherTracker,2010-07-29 22:25:00,
2010-07-29 17:30:00,81.9,67.1,30.05,SW,218,0.0,0.0,61,0.00,,,0.00,WeatherTracker,2010-07-29 22:30:00,
2010-07-29 17:35:00,81.1,66.4,30.05,SW,218,1.0,0.0,61,0.00,,,0.00,WeatherTracker,2010-07-29 22:35:00,
2010-07-29 17:40:00,80.7,67.8,30.05,NNE,18,0.0,0.0,65,0.00,,,0.00,WeatherTracker,2010-07-29 22:40:00,
2010-07-29 17:45:00,80.3,66.5,30.05,NNW,331,0.0,0.0,63,0.00,,,0.00,WeatherTracker,2010-07-29 22:45:00,
2010-07-29 17:50:00,80.3,67.9,30.05,NNW,331,0.0,0.0,66,0.00,,,0.00,WeatherTracker,2010-07-29 22:50:00,
2010-07-29 17:55:00,79.9,67.5,30.05,NNW,331,0.0,0.0,66,0.00,,,0.00,WeatherTracker,2010-07-29 22:55:00,
2010-07-29 18:00:00,79.6,65.9,30.05,NNW,331,0.0,0.0,63,0.00,,,0.00,WeatherTracker,2010-07-29 23:00:00,
2010-07-29 18:05:00,79.3,67.4,30.05,NNW,331,0.0,0.0,67,0.00,,,0.00,WeatherTracker,2010-07-29 23:05:00,
2010-07-29 18:11:00,78.7,67.2,30.04,NNW,330,1.0,0.0,68,0.00,,,0.00,WeatherTracker,2010-07-29 23:11:00,
2010-07-29 18:16:00,78.3,68.1,30.05,NNW,331,0.0,0.0,71,0.00,,,0.00,WeatherTracker,2010-07-29 23:16:00,
2010-07-29 18:21:00,78.2,68.4,30.05,NNW,331,0.0,0.0,72,0.00,,,0.00,WeatherTracker,2010-07-29 23:21:00,
2010-07-29 18:26:00,78.0,68.6,30.05,NE,41,0.0,0.0,73,0.00,,,0.00,WeatherTracker,2010-07-29 23:26:00,
2010-07-29 18:31:00,78.0,68.2,30.05,NNE,24,0.0,0.0,72,0.00,,,0.00,WeatherTracker,2010-07-29 23:31:00,
2010-07-29 18:36:00,78.0,67.0,30.05,NNE,26,0.0,0.0,69,0.00,,,0.00,WeatherTracker,2010-07-29 23:36:00,
2010-07-29 18:41:00,78.3,68.1,30.05,NNE,26,0.0,0.0,71,0.00,,,0.00,WeatherTracker,2010-07-29 23:41:00,
2010-07-29 18:46:00,78.3,68.1,30.04,NNE,26,0.0,0.0,71,0.00,,,0.00,WeatherTracker,2010-07-29 23:46:00,
2010-07-29 18:51:00,78.3,69.3,30.04,NNE,26,0.0,0.0,74,0.00,,,0.00,WeatherTracker,2010-07-29 23:51:00,
2010-07-29 18:56:00,78.0,68.2,30.04,NNE,26,0.0,0.0,72,0.00,,,0.00,WeatherTracker,2010-07-29 23:56:00,
2010-07-29 19:01:00,77.8,68.4,30.04,NNE,26,0.0,0.0,73,0.00,,,0.00,WeatherTracker,2010-07-30 00:01:00,
2010-07-29 19:06:00,77.7,68.7,30.04,NNE,26,0.0,0.0,74,0.00,,,0.00,WeatherTracker,2010-07-30 00:06:00,
2010-07-29 19:11:00,77.6,69.0,30.03,NNE,26,0.0,0.0,75,0.00,,,0.00,WeatherTracker,2010-07-30 00:11:00,
2010-07-29 19:16:00,77.4,68.4,30.03,NNE,26,0.0,0.0,74,0.00,,,0.00,WeatherTracker,2010-07-30 00:16:00,
2010-07-29 19:21:00,77.3,68.7,30.03,NNE,26,0.0,0.0,75,0.00,,,0.00,WeatherTracker,2010-07-30 00:21:00,
2010-07-29 19:26:00,77.1,68.9,30.03,NNE,26,0.0,0.0,76,0.00,,,0.00,WeatherTracker,2010-07-30 00:26:00,
2010-07-29 19:31:00,76.8,68.3,30.03,NNE,26,0.0,0.0,75,0.00,,,0.00,WeatherTracker,2010-07-30 00:31:00,
2010-07-29 19:36:00,76.6,68.5,30.03,NNE,26,0.0,0.0,76,0.00,,,0.00,WeatherTracker,2010-07-30 00:36:00,
2010-07-29 19:41:00,76.4,67.5,30.03,NNE,26,0.0,0.0,74,0.00,,,0.00,WeatherTracker,2010-07-30 00:41:00,
2010-07-29 19:46:00,76.3,67.8,30.03,NNE,26,0.0,0.0,75,0.00,,,0.00,WeatherTracker,2010-07-30 00:46:00,
2010-07-29 19:51:00,76.1,67.6,30.03,NNE,26,0.0,0.0,75,0.00,,,0.00,WeatherTracker,2010-07-30 00:51:00,
2010-07-29 19:56:00,75.9,67.4,30.03,NNE,26,0.0,0.0,75,0.00,,,0.00,WeatherTracker,2010-07-30 00:56:00,
2010-07-29 20:01:00,75.8,67.7,30.02,NNE,26,0.0,0.0,76,0.00,,,0.00,WeatherTracker,2010-07-30 01:01:00,
2010-07-29 20:06:00,75.5,67.4,30.02,NNE,26,0.0,0.0,76,0.00,,,0.00,WeatherTracker,2010-07-30 01:06:00,
2010-07-29 20:11:00,75.2,67.5,30.01,NNE,26,0.0,0.0,77,0.00,,,0.00,WeatherTracker,2010-07-30 01:11:00,
2010-07-29 20:17:00,75.1,68.1,30.01,NNE,26,0.0,0.0,79,0.00,,,0.00,WeatherTracker,2010-07-30 01:17:00,
2010-07-29 20:22:00,74.9,67.9,30.02,NNE,26,0.0,0.0,79,0.00,,,0.00,WeatherTracker,2010-07-30 01:22:00,
2010-07-29 20:27:00,74.7,67.0,30.01,NNE,26,0.0,0.0,77,0.00,,,0.00,WeatherTracker,2010-07-30 01:27:00,
2010-07-29 20:32:00,74.7,67.7,30.01,NNE,26,0.0,0.0,79,0.00,,,0.00,WeatherTracker,2010-07-30 01:32:00,
2010-07-29 20:37:00,74.5,67.9,30.01,NNE,26,0.0,0.0,80,0.00,,,0.00,WeatherTracker,2010-07-30 01:37:00,
2010-07-29 20:42:00,74.3,67.4,30.01,NNE,26,0.0,0.0,79,0.00,,,0.00,WeatherTracker,2010-07-30 01:42:00,
2010-07-29 20:47:00,74.2,67.6,30.01,NNE,26,0.0,0.0,80,0.00,,,0.00,WeatherTracker,2010-07-30 01:47:00,
2010-07-29 20:52:00,74.2,67.6,30.01,NNE,26,0.0,0.0,80,0.00,,,0.00,WeatherTracker,2010-07-30 01:52:00,
2010-07-29 20:57:00,74.3,67.0,30.02,NNE,26,0.0,0.0,78,0.00,,,0.00,WeatherTracker,2010-07-30 01:57:00,
2010-07-29 21:02:00,74.5,66.8,30.02,NNE,26,0.0,0.0,77,0.00,,,0.00,WeatherTracker,2010-07-30 02:02:00,
2010-07-29 21:07:00,74.5,66.8,30.01,NNE,26,0.0,0.0,77,0.00,,,0.00,WeatherTracker,2010-07-30 02:07:00,
2010-07-29 21:12:00,74.3,67.0,30.01,NNE,26,0.0,0.0,78,0.00,,,0.00,WeatherTracker,2010-07-30 02:12:00,
2010-07-29 21:17:00,74.1,67.2,30.01,NNE,26,0.0,0.0,79,0.00,,,0.00,WeatherTracker,2010-07-30 02:17:00,
2010-07-29 21:22:00,73.7,66.8,30.02,NNE,26,0.0,0.0,79,0.00,,,0.00,WeatherTracker,2010-07-30 02:22:00,
2010-07-29 21:27:00,73.4,66.5,30.01,NNE,26,0.0,0.0,79,0.00,,,0.00,WeatherTracker,2010-07-30 02:27:00,
2010-07-29 21:32:00,73.2,67.0,30.01,NNE,26,0.0,0.0,81,0.00,,,0.00,WeatherTracker,2010-07-30 02:32:00,
2010-07-29 21:37:00,72.9,66.7,30.02,NNE,26,0.0,0.0,81,0.00,,,0.00,WeatherTracker,2010-07-30 02:37:00,
2010-07-29 21:42:00,72.7,66.5,30.02,NNE,26,0.0,0.0,81,0.00,,,0.00,WeatherTracker,2010-07-30 02:42:00,
2010-07-29 21:47:00,72.5,66.7,30.02,NNE,26,0.0,0.0,82,0.00,,,0.00,WeatherTracker,2010-07-30 02:47:00,
2010-07-29 21:52:00,72.4,66.6,30.03,NNE,26,0.0,0.0,82,0.00,,,0.00,WeatherTracker,2010-07-30 02:52:00,
2010-07-29 21:57:00,72.3,66.8,30.03,NNE,26,0.0,0.0,83,0.00,,,0.00,WeatherTracker,2010-07-30 02:57:00,
2010-07-29 22:02:00,72.2,66.7,30.02,NNE,26,0.0,0.0,83,0.00,,,0.00,WeatherTracker,2010-07-30 03:02:00,
2010-07-29 22:07:00,72.1,66.6,30.02,NNE,26,0.0,0.0,83,0.00,,,0.00,WeatherTracker,2010-07-30 03:07:00,
2010-07-29 22:12:00,72.1,66.6,30.02,NNE,26,0.0,0.0,83,0.00,,,0.00,WeatherTracker,2010-07-30 03:12:00,
2010-07-29 22:17:00,72.1,66.6,30.02,NNE,26,0.0,0.0,83,0.00,,,0.00,WeatherTracker,2010-07-30 03:17:00,
2010-07-29 22:22:00,72.2,67.1,30.01,NNE,26,0.0,0.0,84,0.00,,,0.00,WeatherTracker,2010-07-30 03:22:00,
2010-07-29 22:27:00,72.1,67.0,30.01,NNE,26,0.0,0.0,84,0.00,,,0.00,WeatherTracker,2010-07-30 03:27:00,
2010-07-29 22:32:00,72.2,67.4,30.02,NNE,26,0.0,0.0,85,0.00,,,0.00,WeatherTracker,2010-07-30 03:32:00,
2010-07-29 22:37:00,72.1,67.0,30.02,NNE,26,0.0,0.0,84,0.00,,,0.00,WeatherTracker,2010-07-30 03:37:00,
2010-07-29 22:42:00,72.0,66.9,30.01,NNE,26,0.0,0.0,84,0.00,,,0.00,WeatherTracker,2010-07-30 03:42:00,
2010-07-29 22:47:00,72.0,66.9,30.01,NNE,26,0.0,0.0,84,0.00,,,0.00,WeatherTracker,2010-07-30 03:47:00,
2010-07-29 22:53:00,71.9,67.1,30.01,NNE,26,0.0,0.0,85,0.00,,,0.00,WeatherTracker,2010-07-30 03:53:00,
2010-07-29 22:58:00,71.7,66.9,30.01,NNE,26,0.0,0.0,85,0.00,,,0.00,WeatherTracker,2010-07-30 03:58:00,
2010-07-29 23:00:00,71.7,66.9,30.01,NNE,26,0.0,0.0,85,0.00,,,0.00,WeatherTracker,2010-07-30 04:00:00,
2010-07-29 23:05:00,71.7,66.9,30.01,NNE,26,0.0,0.0,85,0.00,,,0.00,WeatherTracker,2010-07-30 04:05:00,
2010-07-29 23:10:00,71.8,67.0,30.00,NNE,26,0.0,0.0,85,0.00,,,0.00,WeatherTracker,2010-07-30 04:10:00,
2010-07-29 23:15:00,71.8,67.4,30.00,NNE,26,0.0,0.0,86,0.00,,,0.00,WeatherTracker,2010-07-30 04:15:00,
2010-07-29 23:20:00,71.9,67.5,29.99,NNE,26,0.0,0.0,86,0.00,,,0.00,WeatherTracker,2010-07-30 04:20:00,
2010-07-29 23:25:00,71.9,67.1,30.00,NNE,26,0.0,0.0,85,0.00,,,0.00,WeatherTracker,2010-07-30 04:25:00,
2010-07-29 23:30:00,72.0,66.9,30.00,NNE,26,0.0,0.0,84,0.00,,,0.00,WeatherTracker,2010-07-30 04:30:00,
2010-07-29 23:35:00,72.0,66.5,30.00,NNE,26,0.0,0.0,83,0.00,,,0.00,WeatherTracker,2010-07-30 04:35:00,
2010-07-29 23:40:00,72.1,66.3,29.99,NNE,26,0.0,0.0,82,0.00,,,0.00,WeatherTracker,2010-07-30 04:40:00,
2010-07-29 23:46:00,72.5,66.3,29.99,NNE,26,0.0,0.0,81,0.00,,,0.00,WeatherTracker,2010-07-30 04:46:00,
2010-07-29 23:51:00,73.1,66.6,29.99,NE,34,0.0,0.0,80,0.00,,,0.00,WeatherTracker,2010-07-30 04:51:00,
2010-07-29 23:56:00,73.7,66.8,29.98,NE,35,0.0,0.0,79,0.00,,,0.00,WeatherTracker,2010-07-30 04:56:00,